Regional Weather Roundup
Issued by NWS Wakefield, VA

Home | Current Version | Previous Version | Graphics & Text | Print | Product List | Glossary On
Versions: 1 2 3 4 5 6 7 8 9 10 11 12 13 14 15 16 17 18 19 20 21 22 23 24 25 26 27 28 29 30 31 32 33 34 35 36 37 38 39 40 41 42 43 44 45 46 47 48 49 50
000
ASUS41 KAKQ 250110
RWRAKQ

REGIONAL WEATHER ROUNDUP
NATIONAL WEATHER SERVICE WAKEFIELD VA
800 PM EST SAT JAN 24 2015

Note: "fair" indicates few or no clouds below 12,000 feet with no
significant weather and/or obstructions to visibility. * = Denotes
station may not report precipitation (e.g., rain,snow,etc.),
thunder or fog.

VAZ042-051-052>054-056-250200-
NORTHERN VIRGINIA

CITY           SKY/WX    TMP DP  RH WIND       PRES   REMARKS
WASH NATIONAL  CLEAR     41  23  48 NW7       29.61R
DULLES         PTCLDY    34  24  67 NW5       29.61R
FORT BELVOIR   CLEAR     36  24  62 W7        29.61R
QUANTICO       CLEAR     37  26  64 NW3       29.62R
FREDERICKSBRG* CLEAR     34  33  94 CALM      29.60S
STAFFORD*      CLEAR     39  23  53 NW8       29.64S
WARRENTON      CLEAR     38  29  70 W3        29.60S
CULPEPER*      CLEAR     39  23  52 NW5       29.62R
MANASSAS*      CLEAR     37  27  65 NW10      29.61R
LEESBURG*      CLEAR     37  30  75 NW12G22   29.61R
WINCHESTER     MOCLDY    37  23  56 W12       29.60S
FRONT ROYAL*   MOCLDY    37  23  56 W7        29.60S
LURAY*         FAIR      37  27  65 W14G20    29.62R
$$

VAZ048-049-060>072-079>083-250200-
CENTRAL AND SOUTH CENTRAL VIRGINIA

CITY           SKY/WX    TMP DP  RH WIND       PRES   REMARKS
RICHMOND       CLEAR     41  34  76 W10       29.63R
CHESTERFIELD*  FAIR      39  21  48 W9        29.65R
PETERSBURG*    CLEAR     39  33  79 SW9       29.67R
HANOVER        CLEAR     38  34  85 W6        29.64R
TAPPAHANNOCK*  CLEAR     39  35  86 SW3       29.63R
QUINTON*       FAIR      36  35  94 CALM      29.63R
CHARLOTTSVILLE CLEAR     38  22  52 CALM      29.63R
GORDONSVILLE*  FAIR      36  24  59 CALM      29.62R
ORANGE*        CLEAR     41  25  52 SW9       29.63R
LOUISA*        CLEAR     37  28  70 SW3       29.61R
BUMPASS*       FAIR      35  28  73 SW3       29.62R
FARMVILLE*     CLEAR     40  22  48 SW8       29.66R
CREWE*         FAIR      38  25  57 W5        29.67R
FORT PICKETT*  FAIR      37  27  66 W13       29.67R
CHASE CITY*    FAIR      40  28  63 W7        29.70R
CLARKSVILLE*   FAIR      37  28  70 W6        29.71R
SOUTH HILL*    CLEAR     38  28  66 W6        29.75R
LAWRENCEVILLE* FAIR      39  29  67 W3        29.68R
EMPORIA*       CLEAR     37  32  81 SW5       29.70R
$$

VAZ088>098-250200-
SOUTHEAST VIRGINIA

CITY           SKY/WX    TMP DP  RH WIND       PRES   REMARKS
NORFOLK        CLEAR     40  37  89 SW10      29.64R
VIRGINIA BEACH PTCLDY    40  37  89 W10       29.65R
NORFOLK NAVAL  CLEAR     43  37  79 SW8       29.66R
WEST POINT*    CLEAR     39  37  91 CALM      29.64R
SALUDA*        FAIR      38  37  95 SW5       29.61R
NEWPORT NEWS   CLEAR     42  37  82 SW9       29.64R
LANGLEY AFB    CLEAR     39  37  93 W8        29.64R
FORT EUSTIS    CLEAR     40  40 100 W8        29.63R
WILLIAMSBURG*    N/A    N/A N/A N/A MISG      29.63S
HR EXEC AP*    FAIR      39  36  87 SW6       29.68R
FRANKLIN*      CLEAR     39  37  90 W6        29.68R
WAKEFIELD      CLEAR     39  34  82 SW7       29.66R
$$

VAZ020-022-025-037-045-250200-
WEST CENTRAL AND SOUTHWEST VIRGINIA

CITY           SKY/WX    TMP DP  RH WIND       PRES   REMARKS
STAUNTON*      CLEAR     34  22  62 SW3       29.65S
WAYNESBORO*    FAIR      32  22  67 SW7       29.63S
HOT SPRINGS VA CLOUDY    24  24 100 W13       29.54S FOG     WCI  12
LYNCHBURG      CLEAR     36  22  56 VRB6      29.70R
DANVILLE       CLEAR     35  24  64 W5        29.74R
SOUTH BOSTON*  FAIR      39  24  54 W10G17    29.72R
MARTINSVILLE   CLEAR     38  25  58 W8        29.77R
ROANOKE        PTCLDY    35  23  61 W12       29.73S
BLACKSBURG     CLOUDY    31  24  73 W7        29.73S
DUBLIN*        CLOUDY    34  27  74 W10G16    29.74R
MARION*        CLOUDY    32  26  78 W26G37    29.72S WCI  18
HILLSVILLE*    CLOUDY    30  25  79 W9G18     29.71R
RICHLANDS*     CLOUDY    31  23  70 W13G21    29.77R WCI  22
WISE*          CLOUDY    34  27  75 W12G18    29.80R
ABINGDON*      CLOUDY    33  29  85 W7        29.82R
$$

MDZ021>025-VAZ099-100-250200-
SOUTHERN MARYLAND AND THE DELMARVA PENINSULA

CITY           SKY/WX    TMP DP  RH WIND       PRES   REMARKS
PATUXENT RIVER CLEAR     36  33  89 W8        29.59R
BAY BRIDGE APT   N/A     37  28  70 W9G17     29.57R
LEONARDTOWN    CLEAR     36  32  87 W7        29.61R
DOVER          CLEAR     36  34  92 W12       29.52R
GEORGETOWN     CLEAR     37  32  82 W6        29.55R
EASTON         NOT AVBL
CAMBRIDGE      CLEAR     37  32  81 W5        29.57R
SALISBURY      CLEAR     38  33  82 W8        29.57R
OCEAN CITY     CLEAR     36  33  89 W9        29.55R
WALLOPS ISLAND CLEAR     37  35  92 W8        29.59R
ACCOMACK*      PTCLDY    37  36  93 W8G16     29.61R
$$

NCZ012>017-030>032-250200-
NORTH CENTRAL AND EASTERN NORTH CAROLINA

CITY           SKY/WX    TMP DP  RH WIND       PRES   REMARKS
ROANOKE RAPIDS FAIR      41  32  70 W12G17    29.71R
RALEIGH        CLEAR     41  24  51 W5        29.75R
ELIZABETH CITY CLEAR     40  38  93 SW10      29.68R
AHOSKIE*       CLEAR     35  34  95 CALM      29.70R
EDENTON*       CLEAR     42  39  90 W7        29.71R
CURRITUCK*     CLEAR     40  38  91 SW8       29.68R
KILL DEVIL HLS PTCLDY    42  41  95 W10G17    29.67R
MANTEO         PTCLDY    41  39  93 W8        29.70R
CAPE HATTERAS  MOCLDY    44  40  85 W10G23    29.72R
TARBORO*       FAIR      41  36  80 W6        29.73R
GOLDSBORO      CLEAR     39  39  99 SW6       29.74R
WASHINGTON     CLEAR     40  37  89 SW3       29.73R
GREENVILLE     CLEAR     37  37 100 SW3       29.76R
NEW BERN       CLEAR     44  38  79 SW5       29.76R
WILMINGTON     CLEAR     44  40  85 SW8       29.79R
$$

VAZ048-250200-
ELSEWHERE

CITY           SKY/WX    TMP DP  RH WIND       PRES   REMARKS
HARRISBURG PA  MOCLDY    34  25  69 NW17      29.53R WCI  23
BALTIMORE      PTCLDY    37  24  59 W13G21    29.57R
ANNAPOLIS      CLEAR     39  25  57 W12       29.58R
ANDREWS AFB    CLEAR     38  25  57 W14       29.58R
PHILADELPHIA   PTCLDY    34  30  85 W12       29.49R
HENDERSON NC   CLEAR     40  22  48 W7        29.73R
GREENSBORO     CLEAR     39  24  55 W10       29.75R
ROCKY MOUNT    CLEAR     40  35  83 W3        29.74R
$$

VAZ100-250200-
MARINE

STATION/POSITION TIME  TEMP    WIND        PRES    WAVE   SWELL
                       AIR SEA DIR/SP/G            HT/PER HT/PER
                 (UTC) (F)     (DEG/KT/KT) (MB)    (FT/S) (FT/S)
BRANDYWINE LGT   0100   38 37  280/ 18/ 20  999.4R
CAPE MAY NJ      0100   37 39  270/ 16/ 18  998.9R
LEWES DE         0100   37 38  270/ 11/ 18  999.7R
15NM E FENWICK I 0100   40 42               999.2R   6/ 9
OCEAN-CITY-INLET 0100   38 40  290/ 12/ 15 1000.1R
WACHAPREAGUE VA  0100   38 42  260/  5/  9 1002.4R
THOMAS POINT MD  0100   40 37  290/ 20/ 22 1002.3R
GOOSES REEF MD   0100   40 37  VRB 14/ 17  1000.8R   2/ 2
COVE POINT MD    0100   38     300/  8/ 10 1001.6R
SOLOMONS ISLAND  0100      38                N/A
BISHOPS HEAD MD  0100   39 37  260/  9/ 10 1001.3R
PINEY POINT MD   0100          270/  8/  9   N/A
POTOMAC MD       0100   39 38  270/ 10/ 14 1001.2R   2/ 3
CAMBRIDGE MD     0100   39 36  240/  4/  7 1001.1R
LEWISETTA VA     0100   39 38  270/  8/ 10 1002.2R
RAPPAHANNOCK LGT 0100          250/ 11/ 12 1003.1R
STINGRAY PT      0100   40 39  260/ 12/ 14 1003.3R   1/ 2
YORK RVR RNG VA  0100   42     270/ 14/ 17 1002.2R
JAMESTOWN VA     0100   39 41  270/  8/ 12   N/A     0
DOMINION TERM VA 0100   40     250/ 10/ 12 1003.7R
KIPTOPEKE VA     0100      46  280/ 12/ 14   N/A
CHES BAY BRIDGE  0100   41 41  230/ 15/ 18 1003.0R
CAPE HENRY VA    0100   41     250/ 11/ 16 1002.3R
CHESAPEAKE LGHT  0000   41     270/ 21/ 23 1003.3R
WILLOUBY STN VA  0100   41     240/ 12/ 14 1003.8R
S CRANEY ISL VA  0100          220/  6/  9 1003.8R
CAPE HENRY BUOY  0000      45                N/A     5/10   2/11
1ST LANDING BUOY 0100   42 41  250/ 14/ 19 1003.5R   2/ 3
CAPE CHARLES BUO 0100      43                N/A     4/10   3/10
OFFSHORE WE BUOY 0100      47                N/A     6/11   5/11
64NM E OF VA BCH 0100   45 53  300/ 23/ 29 1002.4R  10/ 7   5/12
DUCK PIER NC     0100   42 43  260/ 14/ 18 1004.0S
44100 DUCK FRF   0100      44                N/A     5/11   3/11
44056 DUCK FRF   0100      43                N/A     4/12   2/12
OREGON INLET NC  0100   42 49  260/  9/ 13 1005.5R
HATTERAS NC      0100   47 57  290/ 19/ 24 1006.8R


USA.gov is the U.S. government's official web portal to all federal, state and local government web resources and services.